Salt Lake City, UT

4:06 AM MST on January 19, 2017 (GMT -0700)
Salt Lake City International

Weather History for KSLC - March, 2014

Change the Weather History Date:

Monday, March 3, 2014

  Actual Average Record
Temperature  
Mean Temperature 54 °F 40 °F  
Max Temperature 62 °F 50 °F 71 °F (1921)
Min Temperature 45 °F 30 °F 5 °F (1952)
Degree Days  
Heating Degree Days 11 25  
Month to date heating degree days 39 76  
Since 1 July heating degree days 4026 4332  
Cooling Degree Days 0 0  
Month to date cooling degree days 0 0  
Year to date cooling degree days 0 0  
Growing Degree Days 4 (Base 50)    
Moisture  
Dew Point 34 °F    
Average Humidity 53    
Maximum Humidity 71    
Minimum Humidity 35    
Precipitation  
Precipitation T in 0.05 in 0.66 in (1938)
Month to date precipitation 0.04 0.15  
Year to date precipitation 2.81 2.65  
Snow  
Snow T in 0.30 in 4.20 in (1962)
Month to date snowfall T 0.8  
Since 1 July snowfall 34.9 46.2  
Snow Depth 0.00 in    
Sea Level Pressure  
Sea Level Pressure 29.97 in    
Wind  
Wind Speed 8 mph (South)    
Max Wind Speed 20 mph    
Max Gust Speed 28 mph    
Visibility 10 miles    
Events      
T = Trace of Precipitation, MM = Missing Value Source: NWS Daily Summary

Daily Weather History Graph

Daily Weather History Graph

Search for Another Location

Airport or City:

Trip Planner

Search our weather history database for the weather conditions in past years. The results will help you decide how hot, cold, wet, or windy it might be!

Date:

Astronomy

Mar. 03, 2014 Rise Set
Actual Time 6:58 AM MST 6:21 PM MST
Civil Twilight 6:31 AM MST 6:48 PM MST
Nautical Twilight 5:59 AM MST 7:20 PM MST
Astronomical Twilight 5:27 AM MST 7:52 PM MST
Moon 8:08 AM MST (3/3) 9:30 PM MST (3/3)
Length of Visible Light 12h 17m
Length of Day
11h 22m
Waxing Crescent, 8% of the Moon is Illuminated
Mar 3
Waxing Crescent
Mar 8
First Quarter
Mar 16
Full
Mar 23
Last Quarter
Mar 30
New

Hourly Weather History & Observations

Time (MST) Temp. Dew Point Humidity Pressure Visibility Wind Dir Wind Speed Gust Speed Precip Events Conditions
12:53 AM 50.0 °F 33.1 °F 52% 29.96 in 10.0 mi Variable 5.8 mph - N/A   Mostly Cloudy
1:53 AM 51.1 °F 30.9 °F 46% 29.98 in 10.0 mi SSW 5.8 mph - N/A   Mostly Cloudy
2:53 AM 51.1 °F 32.0 °F 48% 29.98 in 10.0 mi East 3.5 mph - N/A   Mostly Cloudy
3:53 AM 50.0 °F 34.0 °F 54% 29.98 in 10.0 mi ENE 3.5 mph - 0.00 in   Mostly Cloudy
4:53 AM 50.0 °F 34.0 °F 54% 29.99 in 10.0 mi SSW 9.2 mph - 0.00 in   Mostly Cloudy
5:53 AM 46.9 °F 36.0 °F 66% 30.01 in 10.0 mi SE 5.8 mph - N/A   Mostly Cloudy
6:53 AM 46.9 °F 36.0 °F 66% 30.02 in 10.0 mi SSE 6.9 mph - N/A   Mostly Cloudy
7:53 AM 46.9 °F 37.0 °F 68% 30.05 in 10.0 mi SSE 4.6 mph - N/A   Mostly Cloudy
8:53 AM 51.1 °F 35.1 °F 54% 30.05 in 10.0 mi South 9.2 mph - N/A   Scattered Clouds
9:53 AM 55.0 °F 34.0 °F 45% 30.03 in 10.0 mi South 11.5 mph - N/A   Scattered Clouds
10:53 AM 57.0 °F 33.1 °F 40% 30.02 in 10.0 mi South 11.5 mph 20.7 mph N/A   Scattered Clouds
11:53 AM 57.9 °F 32.0 °F 37% 30.00 in 10.0 mi South 13.8 mph - N/A   Mostly Cloudy
12:53 PM 59.0 °F 32.0 °F 36% 30.00 in 10.0 mi SSW 15.0 mph - N/A   Mostly Cloudy
1:53 PM 60.1 °F 33.1 °F 36% 29.97 in 10.0 mi South 8.1 mph 19.6 mph N/A   Mostly Cloudy
2:53 PM 60.1 °F 30.9 °F 33% 29.94 in 10.0 mi SSE 10.4 mph - N/A   Mostly Cloudy
3:53 PM 60.1 °F 32.0 °F 35% 29.91 in 10.0 mi South 17.3 mph 26.5 mph N/A   Mostly Cloudy
4:53 PM 60.1 °F 30.9 °F 33% 29.91 in 10.0 mi SSW 11.5 mph - N/A   Overcast
5:53 PM 57.0 °F 34.0 °F 42% 29.94 in 10.0 mi West 5.8 mph - N/A   Overcast
6:53 PM 54.0 °F 39.0 °F 57% 29.94 in 10.0 mi North 6.9 mph - N/A   Mostly Cloudy
7:53 PM 54.0 °F 36.0 °F 51% 29.94 in 10.0 mi North 3.5 mph - N/A   Mostly Cloudy
8:53 PM 52.0 °F 36.0 °F 54% 29.93 in 10.0 mi NE 3.5 mph - N/A   Mostly Cloudy
9:53 PM 51.1 °F 37.0 °F 59% 29.92 in 10.0 mi SE 5.8 mph - N/A   Mostly Cloudy
10:53 PM 53.1 °F 34.0 °F 48% 29.90 in 10.0 mi Calm Calm - N/A   Mostly Cloudy
11:53 PM 48.0 °F 39.0 °F 71% 29.90 in 10.0 mi SW 4.6 mph - N/A   Mostly Cloudy